When you browse on this site, cookies collect data to enhance your experience and personalize the content and advertising you see.
Visit our Privacy Policy to learn more. By continuing to use the site, you agree to this use of cookies and data.
  • In United Kingdom
  • List of Countries
  • For 7 days
  • Water Temperature
  • Weather Map
  • Weather Widgets
  • user-avatar
    Login

    Hourly Weather Chester

    Today, 5 June, Friday

    Time Temperature Precipitation Wind Pressure Humidity
    00:00 +8°C° 0 mm 5 mps 747 mmHg 91%
    01:00 +8°C° 0 mm 5 mps 747 mmHg 90%
    02:00 +7°C° 0 mm 6 mps 746 mmHg 88%
    03:00 +7°C° 0 mm 6 mps 746 mmHg 87%
    04:00 +6°C° 0.2 mm 7 mps 746 mmHg 85%
    05:00 +8°C° 0.2 mm 7 mps 746 mmHg 82%
    06:00 +8°C° 0.2 mm 7 mps 746 mmHg 80%
    07:00 +9°C° 0.3 mm 8 mps 746 mmHg 75%
    08:00 +9°C° 0.3 mm 8 mps 746 mmHg 69%
    09:00 +10°C° 0.3 mm 8 mps 746 mmHg 64%
    10:00 +10°C° 0.1 mm 8 mps 746 mmHg 60%
    11:00 +11°C° 0.1 mm 9 mps 746 mmHg 55%
    12:00 +12°C° 0.1 mm 9 mps 746 mmHg 51%
    13:00 +12°C° 0 mm 9 mps 746 mmHg 50%
    14:00 +12°C° 0 mm 9 mps 746 mmHg 50%
    15:00 +12°C° 0 mm 9 mps 746 mmHg 49%
    16:00 +11°C° 0 mm 9 mps 746 mmHg 52%
    17:00 +11°C° 0 mm 9 mps 746 mmHg 54%
    18:00 +10°C° 0 mm 9 mps 746 mmHg 56%
    19:00 +9°C° 0 mm 8 mps 746 mmHg 59%
    20:00 +7°C° 0 mm 8 mps 746 mmHg 63%
    21:00 +6°C° 0 mm 7 mps 747 mmHg 66%
    22:00 +6°C° 0 mm 8 mps 746 mmHg 67%
    23:00 +6°C° 0 mm 8 mps 746 mmHg 69%

    Tomorrow, 6 June, Saturday

    Time Temperature Precipitation Wind Pressure Humidity
    00:00 +6°C° 0 mm 9 mps 746 mmHg 70%
    01:00 +5°C° 0.4 mm 9 mps 745 mmHg 77%
    02:00 +5°C° 0.4 mm 9 mps 744 mmHg 83%
    03:00 +5°C° 0.4 mm 10 mps 744 mmHg 89%
    04:00 +6°C° 1.4 mm 9 mps 743 mmHg 90%
    05:00 +7°C° 1.4 mm 9 mps 743 mmHg 91%
    06:00 +9°C° 1.4 mm 8 mps 743 mmHg 92%
    07:00 +10°C° 0.3 mm 8 mps 743 mmHg 88%
    08:00 +10°C° 0.3 mm 7 mps 743 mmHg 83%
    09:00 +11°C° 0.3 mm 7 mps 744 mmHg 79%
    10:00 +11°C° 0.4 mm 7 mps 744 mmHg 76%
    11:00 +12°C° 0.4 mm 7 mps 745 mmHg 74%
    12:00 +12°C° 0.4 mm 8 mps 745 mmHg 72%
    13:00 +14°C° 0.3 mm 7 mps 746 mmHg 69%
    14:00 +14°C° 0.3 mm 7 mps 746 mmHg 66%
    15:00 +15°C° 0.3 mm 7 mps 747 mmHg 63%
    16:00 +15°C° 0.1 mm 6 mps 747 mmHg 64%
    17:00 +14°C° 0.1 mm 6 mps 748 mmHg 65%
    18:00 +14°C° 0.1 mm 5 mps 748 mmHg 66%
    19:00 +13°C° 0.1 mm 5 mps 749 mmHg 73%
    20:00 +12°C° 0.1 mm 5 mps 749 mmHg 80%
    21:00 +11°C° 0.1 mm 4 mps 750 mmHg 87%
    22:00 +11°C° 0 mm 4 mps 750 mmHg 88%
    23:00 +10°C° 0 mm 5 mps 750 mmHg 89%

    Day after tomorrow, 7 June, Sunday

    Time Temperature Precipitation Wind Pressure Humidity
    00:00 +9°C° 0 mm 5 mps 750 mmHg 90%
    01:00 +10°C° 0 mm 5 mps 750 mmHg 89%
    02:00 +10°C° 0 mm 5 mps 751 mmHg 88%
    03:00 +10°C° 0 mm 5 mps 751 mmHg 88%
    04:00 +10°C° 0.1 mm 5 mps 751 mmHg 88%
    05:00 +10°C° 0.1 mm 5 mps 752 mmHg 89%
    06:00 +10°C° 0.1 mm 5 mps 752 mmHg 90%
    07:00 +10°C° 0.1 mm 5 mps 752 mmHg 90%
    08:00 +12°C° 0.1 mm 5 mps 753 mmHg 89%
    09:00 +12°C° 0.1 mm 5 mps 754 mmHg 89%
    10:00 +12°C° 0.2 mm 5 mps 754 mmHg 86%
    11:00 +13°C° 0.2 mm 5 mps 755 mmHg 83%
    12:00 +14°C° 0.2 mm 5 mps 755 mmHg 81%
    13:00 +14°C° 0.2 mm 5 mps 756 mmHg 77%
    14:00 +15°C° 0.2 mm 5 mps 756 mmHg 72%
    15:00 +16°C° 0.2 mm 5 mps 756 mmHg 68%
    16:00 +15°C° 0.3 mm 4 mps 757 mmHg 73%
    17:00 +14°C° 0.3 mm 4 mps 757 mmHg 77%
    18:00 +14°C° 0.3 mm 3 mps 758 mmHg 81%
    19:00 +13°C° 0.2 mm 3 mps 758 mmHg 82%
    20:00 +13°C° 0.2 mm 2 mps 759 mmHg 83%
    21:00 +13°C° 0.2 mm 2 mps 760 mmHg 84%
    22:00 +12°C° 0.1 mm 2 mps 760 mmHg 84%
    23:00 +12°C° 0.1 mm 2 mps 760 mmHg 83%

    8 June, Monday

    Time Temperature Precipitation Wind Pressure Humidity
    00:00 +10°C° 0.1 mm 2 mps 761 mmHg 83%
    01:00 +10°C° 0.1 mm 2 mps 761 mmHg 84%
    02:00 +10°C° 0.1 mm 1 mps 761 mmHg 85%
    03:00 +10°C° 0.1 mm 1 mps 761 mmHg 86%
    04:00 +10°C° 0 mm 1 mps 762 mmHg 85%
    05:00 +10°C° 0 mm 1 mps 762 mmHg 85%
    06:00 +10°C° 0 mm 1 mps 762 mmHg 85%
    07:00 +12°C° 0 mm 2 mps 762 mmHg 77%
    08:00 +13°C° 0 mm 2 mps 763 mmHg 70%
    09:00 +14°C° 0 mm 2 mps 763 mmHg 63%
    10:00 +14°C° 0 mm 3 mps 763 mmHg 58%
    11:00 +16°C° 0 mm 3 mps 763 mmHg 54%
    12:00 +16°C° 0 mm 3 mps 764 mmHg 49%
    13:00 +16°C° 0 mm 3 mps 764 mmHg 50%
    14:00 +16°C° 0 mm 3 mps 764 mmHg 51%
    15:00 +16°C° 0 mm 3 mps 764 mmHg 52%
    16:00 +14°C° 0 mm 3 mps 764 mmHg 56%
    17:00 +14°C° 0 mm 3 mps 764 mmHg 60%
    18:00 +13°C° 0 mm 3 mps 764 mmHg 64%
    19:00 +12°C° 0 mm 3 mps 765 mmHg 64%
    20:00 +11°C° 0 mm 3 mps 765 mmHg 64%
    21:00 +10°C° 0 mm 3 mps 766 mmHg 65%
    22:00 +9°C° 0 mm 2 mps 766 mmHg 67%
    23:00 +8°C° 0 mm 2 mps 766 mmHg 69%

    9 June, Tuesday

    Time Temperature Precipitation Wind Pressure Humidity
    00:00 +8°C° 0 mm 1 mps 766 mmHg 71%
    01:00 +8°C° 0 mm 1 mps 766 mmHg 74%
    02:00 +7°C° 0 mm 1 mps 766 mmHg 77%
    03:00 +6°C° 0 mm 1 mps 767 mmHg 80%
    04:00 +7°C° 0 mm 1 mps 767 mmHg 77%
    05:00 +9°C° 0 mm 1 mps 767 mmHg 74%
    06:00 +10°C° 0 mm 1 mps 767 mmHg 71%
    07:00 +11°C° 0 mm 1 mps 767 mmHg 66%
    08:00 +13°C° 0 mm 1 mps 768 mmHg 62%
    09:00 +14°C° 0 mm 1 mps 768 mmHg 57%
    10:00 +15°C° 0 mm 1 mps 768 mmHg 54%
    11:00 +16°C° 0 mm 1 mps 768 mmHg 51%
    12:00 +18°C° 0 mm 1 mps 768 mmHg 47%
    13:00 +17°C° 0 mm 2 mps 767 mmHg 48%
    14:00 +17°C° 0 mm 2 mps 767 mmHg 48%
    15:00 +18°C° 0 mm 2 mps 767 mmHg 48%
    16:00 +17°C° 0 mm 3 mps 767 mmHg 52%
    17:00 +16°C° 0 mm 3 mps 767 mmHg 56%
    18:00 +16°C° 0 mm 3 mps 767 mmHg 61%
    19:00 +13°C° 0 mm 3 mps 768 mmHg 67%
    20:00 +13°C° 0 mm 2 mps 768 mmHg 73%
    21:00 +10°C° 0 mm 2 mps 768 mmHg 79%
    22:00 +11°C° 0 mm 1 mps 768 mmHg 81%
    23:00 +10°C° 0 mm 1 mps 768 mmHg 82%

    10 June, Wednesday

    Time Temperature Precipitation Wind Pressure Humidity
    00:00 +10°C° 0 mm 1 mps 768 mmHg 84%
    01:00 +9°C° 0 mm 1 mps 768 mmHg 84%
    02:00 +9°C° 0 mm 1 mps 768 mmHg 84%
    03:00 +9°C° 0 mm 1 mps 768 mmHg 83%
    04:00 +9°C° 0 mm 0 mps 768 mmHg 81%
    05:00 +10°C° 0 mm 0 mps 769 mmHg 78%
    06:00 +11°C° 0 mm 0 mps 769 mmHg 75%
    07:00 +13°C° 0 mm 1 mps 769 mmHg 71%
    08:00 +15°C° 0 mm 1 mps 769 mmHg 67%
    09:00 +16°C° 0 mm 1 mps 769 mmHg 63%
    10:00 +18°C° 0 mm 1 mps 769 mmHg 59%
    11:00 +18°C° 0 mm 2 mps 769 mmHg 55%
    12:00 +19°C° 0 mm 2 mps 769 mmHg 52%
    13:00 +19°C° 0 mm 2 mps 768 mmHg 52%
    14:00 +19°C° 0 mm 2 mps 768 mmHg 53%
    15:00 +19°C° 0 mm 3 mps 768 mmHg 53%
    16:00 +18°C° 0 mm 3 mps 768 mmHg 57%
    17:00 +18°C° 0 mm 3 mps 768 mmHg 61%
    18:00 +17°C° 0 mm 3 mps 768 mmHg 64%
    19:00 +16°C° 0 mm 3 mps 769 mmHg 70%
    20:00 +14°C° 0 mm 2 mps 769 mmHg 76%
    21:00 +13°C° 0 mm 2 mps 769 mmHg 81%
    22:00 +12°C° 0 mm 2 mps 769 mmHg 84%
    23:00 +12°C° 0 mm 1 mps 769 mmHg 86%
    Show more